风云二号H星 (FENGYUN 2H)

导读

FENGYUN 2H即风云二号H星,是中国自主研制的风云二号系列静止气象卫星的收官之星,于2018年6月5日成功发射。它定点于东经79度,具备先进的静止轨道观测能力,可获取可见光云图与红外云图,在保障我国气象业务连续稳定运行的同时,覆盖南亚、西亚、中亚及多数非洲区域,为“一带一路”沿线国家防灾减灾、应对气候变化提供关键气象数据支撑。

Basic Information
目录编号:
43491
目录名称:
FENGYUN 2H
国际标识:
2018-050A
轨道中心:
EARTH
卫星名称:
风云二号H星
卫星全名:
风云二号H星 (FENGYUN 2H)
卫星状态:
在轨 (已飞行2975 天)
发射日期:
2018-06-05 UTC
国别 :
中国 (CN)
星等 :
--
Orbit Information
数据来源 国际轨道数据 AOE轨道数据
星历时间 2026-07-27T22:52:45+0800
12小时前
查看轨道信息
2026-07-25T04:00:00+0800
3天前
查看轨道信息
半长轴 42165.99km 42165.906km
偏心率 0.000213 0.0002172
轨道倾角 3.132° 3.125°
近地点辐角 121.208° 123.901°
升交点赤经 78.595° 78.633°
平近点角 47.617° 118.993°
近地点 35778.871km 35778.61km
远地点 35796.835km 35796.928km
周期 1436.161分钟 1436.157分钟
每日圈数 1.002673 1.002676
Detailed Information
平衡模式:
三轴稳定
覆盖范围:
亚洲
运营商:
夏威夷科学技术博物馆
运营商所在国:
美国
制造商(研发单位):
上海航天技术研究院
制造商所在国:
中国
使用方式:
暂无
Satellite Introduction
风云气象卫星系列(FENGYUN Meteorological Satellite)是中国于1977年开始研制的气象卫星系列,目前发射了风云一号、风云二号、风云三号、风云四号等卫星系列。其中,风云二号系列、风云四号系列为风云静止卫星,风云一号系列、风云三号系列为风云极轨卫星。该卫星仍在工作。
2D Orbit Map
3D Orbit Map
Orbit Altitude Analysis Chart
Orbit Inclination Analysis Chart
Orbit Comprehensive Analysis Chart
View Comprehensive Chart